Showing default

IRIDIUM 138, 43071

Orbit data source: Space-Track

IRIDIUM 138, 43071 is a payload satellite owned by Iridium (US) in LEO that was launched on Sat, 23 Dec 2017 UTC via an FALCON 9 launch vehicle from the Air Force Western Test Range (AFWTR). Payload-class satellites include a variety of spacecraft equipped with specific instruments for various scientific and technological missions. These include communications satellites like Starlink; space stations such as the ISS; scientific satellites like the Hubble; Earth observation satellites from companies like Planet Labs, Umbra, and HawkEye 360; GPS; miniature CubeSats for education and research; and military/defense satellites.

Loading next visibility...
Identifier
43071, 2017-083B
Orbit
LEO
Country
Flag of USUS
Related business
Manufacturer
OATK SSG Gilbert
Mission
Operational Commercial Communications
Bus & Motor
ELITEBUS, Unknown motor
Mass
860 kg wet, 700 kg dry
Launch date (UTC)
2017-12-23 (8 years ago)
Launch vehicle
FALCON 9
Launch site
Air Force Western Test Range (AFWTR)
Object type
Payload
Rocket body
Debris
Shape & HBR
Trap Box + 2 Pan, 4.8 m
Radar Cross Section
10.154 m², Large (>1 m²)

Expand to show TLE details & history
Last TLE update: 13 hours ago

TLE from 13 hours ago
0 IRIDIUM 138
1 43071U 17083B   25293.87091444  .00000359  00000-0  12130-3 0  9999
2 43071  86.3973  61.6990 0002483  94.6398 265.5082 14.34217954409832
Epoch: 2025-10-20T20:54Z
TLE epoch observation values (Epoch: 2025-10-20T20:54:07.007Z)
Latitude
0.00002°
Longitude
78.60279°
Altitude
780.857 km
Speed
7.463 km/s
True Right ascension
04h 06m 47s
True Declination
0° 00' 00"
Sunlit
Object was in full shadow at epoch
Visualization orbit readout
Latitude
Unknown
Longitude
Unknown
Altitude
Unknown
Speed
Unknown
Apparent Right ascension
Unknown
Apparent Declination
Unknown
Sunlit
N/A
Visualization observer readout
Local Sidereal Time
04:29:05
Azimuth
Unknown
Elevation
Unknown
Doppler factor
Unknown
Orbital elements
Apogee altitude
776.407 km
Perigee altitude
772.855 km
Semi-major axis
7,152.768 km
Eccentricity
0.00025
Inclination
86.3973°
RAAN
61.699°
Arg. of periapsis
94.6398°
True anomaly
265.47983°
Mean anomaly
265.5082°
Eccentric anomaly
265.49402°
Mean motion
3.58783 °/min
Orbital period
100.34 mins
BSTAR
0.0001213
Loading maneuver chart data...
Computing Atmospheric mass density...
Loading historical data...
Loading historical data...
Loading historical data...
Loading historical data...
Loading historical data...
Loading historical data...
Loading historical data...

Documentation

Showing up to 5 results
|